Regional Weather Roundup
Issued by NWS Grand Forks, ND

Home | Current Version | Previous Version | Text Only | Print | Product List | Glossary On
Versions: 1 2 3 4 5 6 7 8 9 10 11 12 13 14 15 16 17 18 19 20 21 22 23 24 25 26 27 28 29 30 31 32 33 34 35 36 37 38 39 40 41 42 43 44 45 46 47 48 49 50
000
ASUS43 KFGF 170110
RWRFGF
PRAIRIE TO PINES  WEATHER ROUNDUP
NATIONAL WEATHER SERVICE EASTERN NORTH DAKOTA/GRAND FORKS ND
800 PM CDT WED APR 16 2014

 **SATELLITE DATA USED TO AUGMENT SKY COVER AT AUTOMATED STATIONS**
 *****  WEATHER ACROSS EASTERN NORTH DAKOTA  *****

CITY           SKY/WX    TMP DP  RH WIND       PRES   REMARKS
GRAND FORKS    CLEAR     34  10  37 NE15      30.19R WCI  24
GRAND FRKS AFB CLEAR     35  10  35 NE14      30.24R
GRAND FRKS NWS   N/A     34 N/A N/A NE7         N/A
DEVILS LAKE    CLEAR     32  10  40 NE16      30.24R WCI  21
FARGO          CLEAR     36  22  56 NE8       30.16R
WAHPETON ARPT  PTCLDY    32  21  64 NE8       30.15R WCI  25
$$

 ***** WEATHER ACROSS CENTRAL AND WESTERN NORTH DAKOTA  *****

CITY           SKY/WX    TMP DP  RH WIND       PRES   REMARKS
BISMARCK       CLOUDY    36  15  42 NE12      30.20R
MINOT          CLOUDY    32  18  56 NE8       30.24R WCI  25
JAMESTOWN      CLEAR     34  18  52 N13       30.18R WCI  25
MINOT AFB      CLOUDY    32  18  57 E10       30.24R WCI  24
GARRISON         N/A     33  17  51 E8        30.21R
WILLISTON        N/A    N/A N/A N/A MISG      30.24R
DICKINSON      CLOUDY    28  19  69 E13       30.16R WCI  17
HETTINGER      CLOUDY    30  22  72 NE9       30.16R WCI  22
$$

 *****  OTHER AIRPORT OBSERVATIONS IN OUR AREA  *****

CITY           SKY/WX    TMP DP  RH WIND       PRES   REMARKS
WALHALLA       NOT AVBL
GRAFTON AIRPOR FAIR      32  18  55 N17       30.26R WCI  21
VALLEY CITY AR NOT AVBL
CANDO          FAIR      30  14  51 NE15G21   30.27R WCI  19
CAVALIER APRT  FAIR      32  14  47 N14G21    30.29R WCI  22
GWINNER        CLEAR     36  23  60 NE12      30.16R
ROLLA          FAIR      27  14  59 NE14      30.28R WCI  15
 ***** THE ABOVE OBSERVATIONS ARE NON NWS ARE NOT QUALITY
       CONTROLLED AND MAY MIS-REPORT RAIN FOR SNOW...
$$

  *****  WEATHER ACROSS NORTHERN MINNESOTA  *****

CITY           SKY/WX    TMP DP  RH WIND       PRES   REMARKS
FLAG ISLAND    CLEAR     30  10  43 N10       30.26R WCI  21
WARROAD        CLEAR     32  12  43 NE8       30.26S WCI  25
ROSEAU         CLEAR     34  14  44 NE9       30.25S
HALLOCK        CLOUDY    34  18  51 N12       30.27R
THF RVR FALLS  CLEAR     34  10  37 N16       30.22R WCI  23
BAUDETTE       CLEAR     33   8  35 N10       30.23R WCI  25
WASKISH        CLEAR     34   7  32 N9        30.20R
CROOKSTON      CLEAR     36  16  44 NE14G20   30.22R
$$
  *****  WEATHER ACROSS CENTRAL AND WEST MINNESOTA  *****

CITY           SKY/WX    TMP DP  RH WIND       PRES   REMARKS
FOSSTON        CLEAR     34  10  37 NE10      30.17R
BEMIDJI        PTCLDY    32  12  44 E8        30.15R WCI  25
PARK RAPIDS    MOCLDY    29  21  72 NE12      30.13R WCI  19
ELBOW LAKE     CLOUDY    30  22  72 NE14G23   30.10R WCI  20
WADENA         CLOUDY    27  21  80 NE15G23   30.11R WCI  15
DETROIT LAKES  PTCLDY    32  21  64 NE10      30.14R WCI  24
MOORHEAD       NOT AVBL
FERGUS FALLS   PTCLDY    30  19  64 NE12G22   30.11R WCI  21
MORRIS MN      CLOUDY    30  25  80 NE18G26   30.08R WCI  18
STAPLES        CLOUDY    27  21  80 NE12G18   30.10R WCI  16
$$
  *****  WEATHER ELSEWHERE ACROSS MINNESOTA  *****

CITY           SKY/WX    TMP DP  RH WIND       PRES   REMARKS
DULUTH         SNOW      26  21  81 NE20G30   30.12S VSB 1/2 WCI  12
INTRNTL FALLS  PTCLDY    33   6  32 NE7       30.22R
ELY            LGT SNOW  25  19  80 NE7       30.21S WCI  17
CLOQUET        LGT SNOW  27  23  86 NE14G24   30.11S WCI  15
WHEATON        CLOUDY    34  27  75 N12       30.15R
BRAINERD       CLOUDY    31  23  72 NE17G28   30.10R HAZE    WCI  19
HIBBING        LGT SNOW  26  20  77 NE12G18   30.18R WCI  16
ALEXANDRIA     CLOUDY    29  21  72 NE17G25   30.07R WCI  17
SAINT CLOUD    SNOW      28  25  86 N15G22    30.01R VSB 1/2 WCI  17
MINNEAPOLIS    LGT RAIN  32  32 100 NE18      29.90S FOG     WCI  20
$$

  *****  WEATHER ACROSS SOUTH DAKOTA  *****

CITY           SKY/WX    TMP DP  RH WIND       PRES   REMARKS
SIOUX FALLS    CLOUDY    30  27  88 N24G30    29.99R WCI  16
BROOKINGS      NOT AVBL
WATERTOWN      CLOUDY    28  23  81 N22       30.05R HAZE    WCI  14
HURON          CLOUDY    32  25  75 N16G23    30.11R WCI  21
SISSETON         N/A     31  23  72 NE17G24   30.12R WCI  19
ABERDEEN       MOCLDY    32  23  69 NE12      30.15R WCI  23
MITCHELL       CLOUDY    33  26  75 N22G29    30.09R WCI  21
PIERRE         CLOUDY    35  24  64 NE9       30.14R
MOBRIDGE       CLEAR     34  20  56 NE10      30.14R
RAPID CITY     MOCLDY    36  25  64 NE15      30.09R
$$

  *****  SOME WEATHER IN NEARBY STATES *****

CITY           SKY/WX    TMP DP  RH WIND       PRES   REMARKS
GLASGOW MT     PTCLDY    34  19  54 E16       30.15R WCI  24
GREAT FALLS MT CLOUDY    41  34  76 E7        29.98R
CHEYENNE WY    PTCLDY    40  27  59 NE13G22   29.99R
SCOTTSBLUFF NE PTCLDY    47  31  53 NE13      30.01R
OMAHA NE       CLOUDY    40  31  70 NW25G35   29.93R
DES MOINES IA  MOCLDY    62  32  32 S22G28    29.78R
DAVENPORT IA   CLOUDY    51  26  37 S20G35    30.01R
CHICAGO IL     CLOUDY    49  23  36 SE21      30.13R
EAU CLAIRE WI  CLOUDY    46  31  55 NE12G22   29.92R
LA CROSSE WI   CLOUDY    52  28  39 SE20G26   29.90R
$$

  *****  SOME NATIONAL WEATHER *****

CITY           SKY/WX    TMP DP  RH WIND       PRES   REMARKS
LA GUARDIA NY  PTCLDY    44  18  35 NE12      30.51R
RALEIGH NC     CLEAR     44  28  53 E6        30.41R
ATLANTA GA     PTCLDY    54  29  38 E8        30.25R
NEW ORLEANS LA PTCLDY    57  41  55 SE6       30.13R
OKLAHOMA CITY  MOCLDY    61  33  35 SE14      29.93R
ALBUQUERQUE NM CLOUDY    70   8   9 W22       29.83R
SALT LAKE CITY MOSUNNY   56  11  16 N6        29.99S
LOS ANGELES CA MOSUNNY   62  52  69 SW10      29.80F
BOISE ID       SUNNY     59  21  23 N12       29.98S
SEATTLE WA     LGT RAIN  52  49  89 S8        30.03S
$$

*** WEATHER ACROSS MANITOBA...SASKATCHEWAN AND ONTARIO ***
                ***ONTARIO***

CITY           SKY/WX    TMP DP  RH WIND       PRES   REMARKS
GERALDTON      PTCLDY    27   1  33 CALM      30.33R
THUNDER BAY    MOCLDY    28  18  64 E9        30.34R WCI  20
SIOUX LOOKOUT  PTCLDY    28   0  29 N3        30.28S
TORONTO        MOCLDY    34  21  60 S9        30.52R
BIG TROUT LK   CLEAR     14  -2  48 NW6       30.36R WCI   5
PICKLE LAKE    PTCLDY    23   0  36 N5        30.31R WCI  17
DRYDEN         CLEAR     27   0  31 NE7       30.26S WCI  19
KENORA         PTCLDY    28   0  29 N6        30.27R WCI  22
$$
                *** MANITOBA***

CITY           SKY/WX    TMP DP  RH WIND       PRES   REMARKS
BRANDON        PTCLDY    27   9  46 E13       30.36R WCI  16
DAUPHIN        CLEAR     28  10  47 NE5       30.39S WCI  23
ISLAND LAKE    CLEAR     23   1  39 N3        30.39R
PILOT MOUND      N/A     27  12  54 N12G17      N/A  WCI  16
THE PAS        PTCLDY    21   7  53 S6        30.41F WCI  14
THOMPSON       CLEAR     23   7  50 NW7       30.39S WCI  15
WINNIPEG       CLEAR     27  10  50 N13G20    30.35R WCI  16
LYNN LAKE      CLEAR     21  -4  33 W8        30.38S WCI  12
CHURCHILL      CLOUDY    16   5  62 W14       30.26S WCI   1
GILLAM         PTCLDY    21   7  53 W13       30.36R WCI   9
$$
                ***SASKATCHEWAN***

CITY           SKY/WX    TMP DP  RH WIND       PRES   REMARKS
ESTEVAN        MOCLDY    28  18  64 E14       30.27R WCI  17
KINDERSLEY     FLURRIES  28  23  80 E21       30.15S WCI  15
LLOYDMINSTER   FLURRIES  28  23  80 SE14G21   30.17F WCI  17
PRINCE ALBERT  PTCLDY    27   9  46 SE8       30.34S WCI  18
REGINA         FLURRIES  28  21  74 E13       30.27S WCI  18
YORKTON        CLEAR     28   7  40 SE8       30.33R WCI  20
N. BATTLEFORD  FLURRIES  28  23  80 SE14G20   30.26S WCI  17
LA RONGE       CLEAR     27   3  36 NE8       30.35F WCI  18
SASKATOON      MOCLDY    30  19  64 SE16      30.28S WCI  19
SWIFT CURRENT  CLOUDY    28  21  74 SE14G21   30.13S WCI  17
$$
NOTE: THESE ARE AUTOMATED STATIONS WITH LIMITED QUALITY CONTROL
      "FAIR" INDICATES FEW OR NO CLOUDS BELOW 12,000 FEET WITH NO
      SIGNIFICANT WEATHER AND/OR OBSTRUCTIONS TO VISIBILITY.
      SKY/WX - SKY CONDITION AND SIGNIFICANT WEATHER.
      TMP - AIR TEMPERATURE.    DP   - DEWPOINT TEMPERATURE.
      RH  - RELATIVE HUMIDITY.  PRES - PRESSURE.
      HX  - HEAT INDEX.         WCI  - WIND CHILL INDEX.
$



USA.gov is the U.S. government's official web portal to all federal, state and local government web resources and services.